Location: Forest Hills
(36.0651°N, 86.8403°W)
Time: 05:43:43
(UTC+00:00)

ARIANE 6 FM1 Upper Stage - Pass Details

Date: 22 January 2026
Orbit: 522 x 609 km, 62.0° (Epoch: 8 February)

Event Time Altitude Azimuth Distance (km) Brightness Sun altitude
Rises 01:32:55 0° 250° (WSW) 2,713 7.2 -30.1°
Reaches altitude 10° 01:35:42 10° 269° (W) 1,806 6.1 -30.7°
Enters shadow 01:38:11 18° 306° (NW) 1,356 5.1 -31.2°
